Regional Weather Roundup
Issued by NWS Grand Forks, ND

Home | Current Version | Previous Version | Graphics & Text | Print | Product List | Glossary On
Versions: 1 2 3 4 5 6 7 8 9 10 11 12 13 14 15 16 17 18 19 20 21 22 23 24 25 26 27 28 29 30 31 32 33 34 35 36 37 38 39 40 41 42 43 44 45 46 47 48 49 50
000
ASUS43 KFGF 221931
RWRFGF
PRAIRIE TO PINES  WEATHER ROUNDUP
NATIONAL WEATHER SERVICE EASTERN NORTH DAKOTA/GRAND FORKS ND
200 PM CDT SUN APR 22 2018

 **SATELLITE DATA USED TO AUGMENT SKY COVER AT AUTOMATED STATIONS**
 *****  WEATHER ACROSS EASTERN NORTH DAKOTA  *****

CITY           SKY/WX    TMP DP  RH WIND       PRES   REMARKS
GRAND FORKS    FAIR      58  44  60 S20G29    30.17F
GRAND FRKS AFB FAIR      61  38  43 S21G29    30.16F
GRAND FRKS NWS   N/A     59  41  52 SW12      30.14F
DEVILS LAKE    PTSUNNY   59  41  51 SW14      30.14F
FARGO          FAIR      62  38  40 S22G31    30.21F
WAHPETON ARPT  FAIR      61  34  36 S16G23    30.24F
$$

 ***** WEATHER ACROSS CENTRAL AND WESTERN NORTH DAKOTA  *****

CITY           SKY/WX    TMP DP  RH WIND       PRES   REMARKS
BISMARCK       FAIR      66  39  37 S10       30.12F
MINOT          FAIR      62  30  29 MISG      30.11F
JAMESTOWN      FAIR      62  37  39 S20G26    30.16S
MINOT AFB      FAIR      60  30  32 W5        30.09F
GARRISON         N/A     60  37  42 N6        30.13S
WILLISTON      FAIR      63  29  27 SW7       30.12F
DICKINSON      FAIR      64  23  21 NW6       30.10F
HETTINGER      FAIR      65  33  30 N9        30.12F
$$

 *****  OTHER AIRPORT OBSERVATIONS IN OUR AREA  *****

CITY           SKY/WX    TMP DP  RH WIND       PRES   REMARKS
WALHALLA       FAIR      59  41  51 SW15      30.11S
GRAFTON AIRPOR FAIR      63  37  39 SW21G29   30.15
VALLEY CITY AR FAIR      57  43  58 S20G28    30.20
CANDO          MOCLDY    61  37  41 W8        30.14S
CAVALIER APRT    N/A     59  41  51 SW14G23   30.12S
GWINNER          N/A     63  39  42 S21G28    30.20F
SHEYENNE NWR     N/A     63  37  38 SW14      29.95S
ROLLA          FAIR      57  39  51 SW9       30.11S
 ***** THE ABOVE OBSERVATIONS ARE NON NWS ARE NOT QUALITY
       CONTROLLED AND MAY MIS-REPORT RAIN FOR SNOW...
$$

  *****  WEATHER ACROSS NORTHERN MINNESOTA  *****

CITY           SKY/WX    TMP DP  RH WIND       PRES   REMARKS
FLAG ISLAND    FAIR      52  30  43 S23G30    30.13F
WARROAD        FAIR      61  37  41 SW20G29   30.17F
ROSEAU         FAIR      61  39  44 SW20G30   30.16F
HALLOCK        FAIR      63  36  36 SW18G31   30.12S
THF RVR FALLS  FAIR      59  38  45 SW24      30.19
BAUDETTE       FAIR      61  32  33 S16G24    30.18F
WASKISH        PTSUNNY   54  34  47 W7        30.20F
CROOKSTON      FAIR      61  43  51 SW21G31   30.20F
STEPHEN NDAWN    N/A     61  43  51 S18         N/A
GREENBUSH NDAW   N/A     57  43  58 S20         N/A
$$
  *****  WEATHER ACROSS CENTRAL AND WEST MINNESOTA  *****

CITY           SKY/WX    TMP DP  RH WIND       PRES   REMARKS
FOSSTON        FAIR      61  36  39 SW21G29   30.21S
BEMIDJI        FAIR      62  29  29 SW12      30.21F
PARK RAPIDS    FAIR      61  32  33 SW15G23   30.24F
ELBOW LAKE     FAIR      61  35  38 S16       30.26F
WADENA         FAIR      61  34  36 S15       30.25F
DETROIT LAKES  FAIR      61  32  33 S13       30.24F
MOORHEAD       FAIR      61  39  44 S15       30.23S
FERGUS FALLS   FAIR      61  36  39 S14       30.22F
MORRIS MN      FAIR      61  41  48 S15       30.26S
STAPLES        FAIR      61  30  31 S12       30.26F
$$
  *****  WEATHER ELSEWHERE ACROSS MINNESOTA  *****

CITY           SKY/WX    TMP DP  RH WIND       PRES   REMARKS
DULUTH         FAIR      59  31  34 SW13G20   30.29F
INTRNTL FALLS  FAIR      60  31  33 SW15G22   30.19F
ELY            FAIR      57  19  23 S8        30.25F
CLOQUET        FAIR      61  25  25 S8G21     30.29F
WHEATON        FAIR      61  36  39 S17       30.26F
BRAINERD       FAIR      62  32  32 S10G18    30.28F
HIBBING        FAIR      58  28  32 SW10      30.26F
ALEXANDRIA     FAIR      62  34  35 S16       30.28F
SAINT CLOUD    FAIR      60  32  34 SE9G16    30.29F
MINNEAPOLIS    FAIR      61  33  35 E6        30.31F
$$

  *****  WEATHER ACROSS SOUTH DAKOTA  *****

CITY           SKY/WX    TMP DP  RH WIND       PRES   REMARKS
SIOUX FALLS    FAIR      60  35  39 E12G22    30.25F
BROOKINGS      FAIR      57  37  47 SE15G22   30.26F
WATERTOWN      FAIR      58  36  43 S13       30.24F
HURON          NOT AVBL
SISSETON         N/A     62  40  44 S14       30.23F
ABERDEEN       FAIR      63  35  35 S20       30.22F
MITCHELL       FAIR      59  36  42 SE14G21   30.24F
PIERRE         FAIR      61  39  44 S21G26    30.16F
MOBRIDGE       FAIR      62  40  44 S18       30.14F
RAPID CITY     FAIR      61  38  42 VRB3      30.12F
$$

  *****  SOME WEATHER IN NEARBY STATES *****

CITY           SKY/WX    TMP DP  RH WIND       PRES   REMARKS
GLASGOW MT     FAIR      63  22  20 W16       30.11F
GREAT FALLS MT FAIR      53  17  24 W13G22    30.13F
CHEYENNE WY    FAIR      58  33  39 NE7G20    30.17F
SCOTTSBLUFF NE FAIR      54  42  64 VRB3      30.16F
OMAHA NE       FAIR      70  32  24 NE12      30.18F
DES MOINES IA  FAIR      67  29  24 E8G16     30.20F
DAVENPORT IA   FAIR      63  23  21 E18       30.25F
CHICAGO IL     PTSUNNY   60  24  25 E15       30.31F
EAU CLAIRE WI  FAIR      62  31  31 SE6       30.31F
LA CROSSE WI   FAIR      62  29  28 SE9G20    30.32F
$$

  *****  SOME NATIONAL WEATHER *****

CITY           SKY/WX    TMP DP  RH WIND       PRES   REMARKS
LA GUARDIA NY  FAIR      63  14  15 E8        30.34F
RALEIGH NC     CLOUDY    69  44  40 S7        30.33F
ATLANTA GA     LGT RAIN  60  59  96 SE16G28   30.16F
NEW ORLEANS LA PTSUNNY   80  68  66 SW16      29.86F
OKLAHOMA CITY  PTSUNNY   56  43  61 N22       30.07F
ALBUQUERQUE NM PTSUNNY   66  26  22 CALM      30.15F
SALT LAKE CITY FAIR      73  29  19 VRB3      30.06F
LOS ANGELES CA FAIR      67  55  65 W13       29.95S
BOISE ID       FAIR      59  29  31 NW17G24   30.10F
SEATTLE WA     PTSUNNY   53  38  56 N9        30.39F
$$

*** WEATHER ACROSS MANITOBA...SASKATCHEWAN AND ONTARIO ***
                ***ONTARIO***

CITY           SKY/WX    TMP DP  RH WIND       PRES   REMARKS
GERALDTON      PTSUNNY   55  16  21 SW21G29   30.27F
THUNDER BAY    PTSUNNY   59  19  21 S15G22    30.30F
SIOUX LOOKOUT  PTSUNNY   55  28  35 SW14G23   30.16F
TORONTO        SUNNY     61  23  23 S12       30.39F
BIG TROUT LK   SUNNY     50  32  50 S10G17    29.96F
PICKLE LAKE    MOSUNNY   57  27  30 S18G32    30.09F
DRYDEN         SUNNY     57  28  33 S16G25    30.16S
KENORA         PTSUNNY   57  27  30 S21G30    30.14F
$$
                *** MANITOBA***

CITY           SKY/WX    TMP DP  RH WIND       PRES   REMARKS
BRANDON        PTSUNNY   57  39  51 SW12G21   30.06S
DAUPHIN        SUNNY     61  32  33 W31G46    29.93S
ISLAND LAKE    PTSUNNY   52  37  58 SW18G24   29.79S
PILOT MOUND      N/A     59  34  38 SW13G18     N/A
THE PAS        CLOUDY    46  36  66 SW24G33   29.64R
THOMPSON       LGT RAIN  41  39  93 S7G17     29.52F
WINNIPEG       PTSUNNY   61  39  44 W18G29    30.06F
LYNN LAKE      LGT RAIN  36  36 100 NE9       29.47R FOG
CHURCHILL      FRZ RAIN  25  23  93 E36G47    29.80F BLWGSNOWWCI   7
GILLAM         PTSUNNY   48  41  76 S10G20    29.65F
$$
                ***SASKATCHEWAN***

CITY           SKY/WX    TMP DP  RH WIND       PRES   REMARKS
ESTEVAN        PTSUNNY   63  30  29 W18G25    30.08F
KINDERSLEY     MOSUNNY   50  32  50 W28G36    30.05S
LLOYDMINSTER   CLOUDY    43  34  70 W22G32    29.99R
PRINCE ALBERT  PTSUNNY   48  34  57 W24G35    29.85R
REGINA         MOSUNNY   57  27  30 W22G31    30.05F
YORKTON        SUNNY     55  32  41 SW29G38   29.95R
N. BATTLEFORD  CLOUDY    46  34  61 W23G33    29.98R
LA RONGE       LGT RAIN  39  37  93 W18G30    29.64R
SASKATOON      MOSUNNY   54  32  43 W26G37    29.96R
SWIFT CURRENT  MOSUNNY   54  23  30 W21G30    30.09S
$$
NOTE: THESE ARE AUTOMATED STATIONS WITH LIMITED QUALITY CONTROL
      "FAIR" INDICATES FEW OR NO CLOUDS BELOW 12,000 FEET WITH NO
      SIGNIFICANT WEATHER AND/OR OBSTRUCTIONS TO VISIBILITY.
      SKY/WX - SKY CONDITION AND SIGNIFICANT WEATHER.
      TMP - AIR TEMPERATURE.    DP   - DEWPOINT TEMPERATURE.
      RH  - RELATIVE HUMIDITY.  PRES - PRESSURE.
      HX  - HEAT INDEX.         WCI  - WIND CHILL INDEX.
$




USA.gov is the U.S. government's official web portal to all federal, state and local government web resources and services.